Location: Elaine Barite Prospect
(34.1431°N, 106.7922°W)
Time: 06:46:51
(UTC+00:00)

NOSS 2-1 (D) - Pass Details

Date: 13 December 2025
Orbit: 374 x 1678 km, 63.3° (Epoch: 12 January)

Event Time Altitude Azimuth Distance (km) Brightness Sun altitude
Exits shadow 12:14:01 44° 233° (SW) 964 4.2 -22.2°
Drops below altitude 10° 12:19:14 10° 170° (S) 2,552 7.0 -21.1°
Sets 12:22:19 0° 165° (SSE) 3,732 8.0 -20.5°
